Location: Champs
(48.8539°N, 2.6040°E)
Time: 01:43:02
(UTC+00:00)

CZ-4 DEB - Visible Passes

Search period start: 15 August 2022 00:00
Search period end: 25 August 2022 00:00
Orbit: 717 x 1009 km, 98.7° (Epoch: 14 August)

Date Brightness Start Highest point End Pass type
(mag) Time Alt. Az. Time Alt. Az. Time Alt. Az.
15 Aug ? 00:34:41 34° W 00:34:41 34° W 00:38:44 10° NNW visible
15 Aug ? 22:44:15 29° ENE 22:45:02 30° ENE 22:49:29 10° N visible
16 Aug ? 00:26:32 39° WNW 00:26:32 39° WNW 00:30:44 10° NNW visible
16 Aug ? 22:36:06 25° ENE 22:37:00 26° ENE 22:41:16 10° N visible
17 Aug ? 00:18:22 45° WNW 00:18:22 45° WNW 00:22:43 10° NNW visible
17 Aug ? 22:27:57 22° ENE 22:28:58 23° ENE 22:33:02 10° N visible
18 Aug ? 00:10:13 52° WNW 00:10:13 52° WNW 00:14:42 10° NNW visible
18 Aug ? 22:19:47 19° ENE 22:20:57 21° ENE 22:24:47 10° N visible
19 Aug ? 00:02:04 60° WNW 00:02:04 60° WNW 00:06:39 10° NNW visible
19 Aug ? 22:11:38 17° ENE 22:12:57 19° NE 22:16:31 10° NNE visible
19 Aug ? 23:53:54 66° NW 23:53:54 66° NW 23:58:35 10° NNW visible
20 Aug ? 01:36:11 10° WNW 01:36:11 10° WNW 01:36:35 10° WNW visible
20 Aug ? 22:03:29 15° ENE 22:04:58 17° NE 22:08:12 10° NNE visible
20 Aug ? 23:45:45 70° NNW 23:45:45 70° NNW 23:50:30 10° NNW visible
21 Aug ? 01:28:02 12° WNW 01:28:02 12° WNW 01:29:26 10° WNW visible
21 Aug ? 21:55:19 13° ENE 21:56:59 15° NE 21:59:50 10° NNE visible
21 Aug ? 23:37:36 69° NNE 23:37:36 69° NNE 23:42:25 10° NNW visible
22 Aug ? 01:19:52 15° WNW 01:19:52 15° WNW 01:21:53 10° NW visible
22 Aug ? 21:47:10 11° ENE 21:49:01 13° NE 21:51:24 10° NNE visible
22 Aug ? 23:29:27 64° NNE 23:29:27 64° NNE 23:34:18 10° N visible
23 Aug ? 01:11:43 17° WNW 01:11:43 17° WNW 01:14:11 10° NW visible
23 Aug ? 21:39:18 10° ENE 21:41:03 12° NE 21:42:50 10° NNE visible
23 Aug ? 23:21:18 57° NE 23:21:18 57° NE 23:26:12 10° N visible
24 Aug ? 01:03:34 20° WNW 01:03:34 20° WNW 01:06:23 10° NW visible
24 Aug ? 21:32:20 10° NE 21:33:06 10° NE 21:33:53 10° NE visible
24 Aug ? 23:13:08 50° NE 23:13:08 50° NE 23:18:03 10° N visible
